Terminal Aerodrome Forecast
Issued by NWS Jackson, MS

Home | Current Version | Previous Version | Text Only | Print | Product List | Glossary On
Versions: 1 2 3 4 5 6 7 8 9 10 11 12 13 14 15 16 17 18
000
FTUS44 KJAN 252300 RRA
TAFGLH
TAF
KGLH 252346Z 2600/2624 VRB04KT P6SM FEW040
     FM261000 22005KT 5SM BR SKC
     FM261300 25009KT P6SM FEW050=

USA.gov is the U.S. government's official web portal to all federal, state and local government web resources and services.